Starlink 31494

operational
NORAD ID: 59238 Int'l Des: 2024-049 Owner: SPXS Country: US Constellation: starlink
LEOCIRCULAR

Starlink 31494について

説明を読み込み中...

リアルタイム位置

3D地球を読み込み中...

次回通過

高度履歴

Altitude vs Time

uPlot chart will show altitude changes over time

軌道要素

1 59238U 24049H 25303.01368257 -.00000727 00000-0 -16893-4 0 9990
2 59238 43.0006 161.2859 0001288 274.1044 85.9661 15.27577736 92427
Epoch: Oct 30, 2025 • Age: 16 hours

現在のステータス

高度 484.8 km
速度 7.62 km/s
衛星直下点 -12.30°S, 134.19°W
打ち上げ日 Mar 16, 2024
運用期間 1.6 years
タイプ internet

技術仕様

分類 Payload
質量 730.00 kg
乾燥質量 700.00 kg
総質量 730.00 kg
長さ 0.30 m
直径 4.10 m
スパン 29.00 m
形状 Box + pan
製造者 SPXS
バスタイプ Starlink V2M
フェーズステータス In Orbit
所有者/国 SPXS/US

大規模コンステレーション

Loading constellations...